Location: Pitton
(51.0667°N, 1.7000°W)
Time: 02:39:00
(UTC+00:00)

Cosmos 2227 Rocket - Pass Details

Date: 17 September 2019
Orbit: 837 x 847 km, 71.0° (Epoch: 17 October)

Event Time Altitude Azimuth Distance (km) Brightness Sun altitude
Rises 19:17:58 0° 158° (SSE) 3,383 5.0 -10.2°
Reaches altitude 10° 19:21:09 10° 140° (SE) 2,456 4.1 -10.7°
Maximum altitude 19:24:47 18° 99° (E) 1,966 3.5 -11.2°
Drops below altitude 10° 19:28:27 10° 58° (ENE) 2,472 4.3 -11.8°
Sets 19:31:39 0° 41° (NE) 3,415 5.1 -12.3°
